星链-30218 (STARLINK-30218 )

导读

STARLINK-30218是美国SpaceX星链互联网星座的一员,于2023年8月11日发射入轨。星链计划旨在构建全球卫星互联网,为偏远、欠发达地区提供高速网络接入服务。该卫星依托低轨部署,能降低信号传输延迟,补充地面网络覆盖,随着星链星座持续扩容,它也将服务全球网络连接需求。

基本信息
目录编号:
57604
目录名称:
STARLINK-30218
国际标识:
2023-119C
轨道中心:
EARTH
卫星名称:
星链-30218
卫星全名:
星链-30218 (STARLINK-30218 )
卫星状态:
在轨 (已飞行1042 天)
发射日期:
2023-08-11 UTC
国别 :
美国 (US)
星等 :
--
轨道信息
数据来源 国际轨道数据
星历时间: 2026-06-17T06:25:20+0800
1天前
查看轨道信息
半长轴: 6861.211km
偏心率: 0.0001482
轨道倾角: 42.997°
近地点辐角 235.720°
升交点赤经 241.179°
平近点角 124.352°
近地点: 482.057km
远地点: 484.091km
周期: 94.267分钟
每日圈数: 15.27572
详细信息
固有亮度:
5
最大亮度:
0.3
卫星平台:
Starlink v2.0 mini
覆盖范围:
全球
运营商:
太空探索技术公司
运营商所在国:
美国
制造商(研发单位):
太空探索技术公司
制造商所在国:
美国
使用方式:
暂无
卫星简介
星链(Starlink)计划是由太空探索技术公司(SpaceX)提出的一个巨型低轨卫星互联网星座项目,计划在2019年至2024年间在太空搭建由约1.2万颗卫星组成的“星链”网络,其中1584颗将部署在地球上空550千米处的近地轨道,并从2020年开始工作。该卫星仍在工作。
2D轨道图
3D轨道图
轨道高度分析图
轨道倾角分析图
轨道综合分析图
查看轨道综合分析图